| time (UTC) | temp F | wind direction | speed MPH | gust MPH | rain 1hr in | rain 24hr in | rain mn in | humidity % | barometer mb |
| 20260505225722 | 78 | 183 | 2.0 | 2.0 | 0.00 | 0.00 | 0.00 | 37 | 1013.2 |
| 20260505225219 | 79 | 123 | 1.0 | 2.0 | 0.00 | 0.00 | 0.00 | 36 | 1013.2 |
| 20260505224714 | 79 | 249 | 0.0 | 3.0 | 0.00 | 0.00 | 0.00 | 36 | 1013.3 |
| 20260505224212 | 79 | 140 | 2.0 | 3.0 | 0.00 | 0.00 | 0.00 | 35 | 1013.2 |
| 20260505223710 | 79 | 154 | 2.0 | 2.0 | 0.00 | 0.00 | 0.00 | 34 | 1013.3 |
| 20260505223205 | 80 | 247 | 2.0 | 5.0 | 0.00 | 0.00 | 0.00 | 34 | 1013.1 |
| 20260505222701 | 80 | 160 | 3.0 | 3.0 | 0.00 | 0.00 | 0.00 | 33 | 1013.4 |
| 20260505222158 | 81 | 239 | 3.0 | 5.0 | 0.00 | 0.00 | 0.00 | 33 | 1013.2 |
| 20260505221655 | 81 | 250 | 0.0 | 5.0 | 0.00 | 0.00 | 0.00 | 33 | 1013.5 |
| 20260505221152 | 81 | 172 | 0.0 | 2.0 | 0.00 | 0.00 | 0.00 | 32 | 1013.3 |
| 20260505220649 | 81 | 220 | 4.0 | 4.0 | 0.00 | 0.00 | 0.00 | 32 | 1013.1 |
| 20260505220147 | 81 | 197 | 3.0 | 4.0 | 0.00 | 0.00 | 0.00 | 32 | 1013.1 |
| 20260505215644 | 81 | 67 | 2.0 | 4.0 | 0.00 | 0.00 | 0.00 | 34 | 1013.1 |
| 20260505215142 | 81 | 180 | 0.0 | 4.0 | 0.00 | 0.00 | 0.00 | 33 | 1013.3 |
| 20260505214640 | 81 | 85 | 2.0 | 2.0 | 0.00 | 0.00 | 0.00 | 32 | 1013.0 |
| 20260505214137 | 80 | 109 | 2.0 | 3.0 | 0.00 | 0.00 | 0.00 | 31 | 1013.1 |
| 20260505213634 | 80 | 125 | 0.0 | 5.0 | 0.00 | 0.00 | 0.00 | 33 | 1012.9 |
| 20260505213131 | 80 | 211 | 0.0 | 3.0 | 0.00 | 0.00 | 0.00 | 31 | 1013.3 |
| 20260505212626 | 81 | 142 | 1.0 | 3.0 | 0.00 | 0.00 | 0.00 | 31 | 1012.9 |
| 20260505212125 | 81 | 73 | 2.0 | 4.0 | 0.00 | 0.00 | 0.00 | 32 | 1013.0 |
| 20260505211621 | 81 | 239 | 0.0 | 3.0 | 0.00 | 0.00 | 0.00 | 31 | 1012.9 |
| 20260505211118 | 82 | 266 | 2.0 | 3.0 | 0.00 | 0.00 | 0.00 | 31 | 1013.1 |
| 20260505210615 | 82 | 74 | 2.0 | 3.0 | 0.00 | 0.00 | 0.00 | 30 | 1013.0 |
| 20260505210112 | 82 | 202 | 1.0 | 4.0 | 0.00 | 0.00 | 0.00 | 33 | 1013.1 |
| 20260505205609 | 83 | 158 | 2.0 | 2.0 | 0.00 | 0.00 | 0.00 | 31 | 1012.7 |
| 20260505205107 | 82 | 9 | 0.0 | 3.0 | 0.00 | 0.00 | 0.00 | 30 | 1012.7 |
| 20260505204604 | 82 | 198 | 0.0 | 5.0 | 0.00 | 0.00 | 0.00 | 30 | 1012.9 |
| 20260505204101 | 82 | 78 | 0.0 | 5.0 | 0.00 | 0.00 | 0.00 | 32 | 1012.8 |
| 20260505203558 | 82 | 263 | 0.0 | 3.0 | 0.00 | 0.00 | 0.00 | 31 | 1012.7 |
| 20260505203055 | 82 | 55 | 2.0 | 3.0 | 0.00 | 0.00 | 0.00 | 29 | 1012.7 |
| 20260505202551 | 83 | 69 | 3.0 | 5.0 | 0.00 | 0.00 | 0.00 | 33 | 1012.7 |
| 20260505202047 | 83 | 226 | 1.0 | 3.0 | 0.00 | 0.00 | 0.00 | 30 | 1012.8 |
| 20260505201544 | 84 | 251 | 1.0 | 3.0 | 0.00 | 0.00 | 0.00 | 29 | 1012.9 |
| 20260505201042 | 84 | 155 | 1.0 | 2.0 | 0.00 | 0.00 | 0.00 | 29 | 1012.7 |
| 20260505200539 | 84 | 187 | 0.0 | 2.0 | 0.00 | 0.00 | 0.00 | 29 | 1012.9 |
| 20260505200036 | 84 | 13 | 0.0 | 2.0 | 0.00 | 0.00 | 0.00 | 29 | 1013.0 |
| 20260505195532 | 85 | 133 | 2.0 | 2.0 | 0.00 | 0.00 | 0.00 | 28 | 1013.2 |
| 20260505195030 | 85 | 96 | 0.0 | 4.0 | 0.00 | 0.00 | 0.00 | 28 | 1012.9 |
| 20260505194527 | 85 | 227 | 2.0 | 4.0 | 0.00 | 0.00 | 0.00 | 29 | 1013.2 |
| 20260505194022 | 85 | 83 | 2.0 | 6.0 | 0.00 | 0.00 | 0.00 | 28 | 1013.2 |
| 20260505193520 | 85 | 232 | 2.0 | 4.0 | 0.00 | 0.00 | 0.00 | 29 | 1013.3 |
| 20260505193017 | 85 | 244 | 0.0 | 3.0 | 0.00 | 0.00 | 0.00 | 28 | 1013.2 |
| 20260505192515 | 85 | 167 | 2.0 | 3.0 | 0.00 | 0.00 | 0.00 | 28 | 1013.3 |
| 20260505192012 | 86 | 25 | 0.0 | 3.0 | 0.00 | 0.00 | 0.00 | 29 | 1013.3 |
| 20260505191510 | 86 | 199 | 1.0 | 3.0 | 0.00 | 0.00 | 0.00 | 29 | 1013.5 |
| 20260505191009 | 86 | 152 | 0.0 | 3.0 | 0.00 | 0.00 | 0.00 | 29 | 1013.7 |
| 20260505190503 | 85 | 350 | 2.0 | 4.0 | 0.00 | 0.00 | 0.00 | 29 | 1013.5 |
| 20260505185958 | 85 | 115 | 0.0 | 4.0 | 0.00 | 0.00 | 0.00 | 27 | 1013.6 |
| 20260505185456 | 86 | 5 | 2.0 | 5.0 | 0.00 | 0.00 | 0.00 | 29 | 1013.7 |
| 20260505184952 | 85 | 89 | 1.0 | 3.0 | 0.00 | 0.00 | 0.00 | 28 | 1013.9 |
| 20260505184449 | 85 | 192 | 1.0 | 2.0 | 0.00 | 0.00 | 0.00 | 28 | 1014.1 |
| 20260505183945 | 84 | 186 | 2.0 | 4.0 | 0.00 | 0.00 | 0.00 | 29 | 1013.8 |
| 20260505183442 | 84 | 126 | 3.0 | 5.0 | 0.00 | 0.00 | 0.00 | 30 | 1014.3 |
| 20260505182939 | 83 | 160 | 3.0 | 6.0 | 0.00 | 0.00 | 0.00 | 30 | 1014.1 |
| 20260505182436 | 83 | 264 | 2.0 | 4.0 | 0.00 | 0.00 | 0.00 | 28 | 1014.4 |
| 20260505181932 | 84 | 100 | 1.0 | 4.0 | 0.00 | 0.00 | 0.00 | 28 | 1014.2 |
| 20260505181430 | 84 | 136 | 1.0 | 5.0 | 0.00 | 0.00 | 0.00 | 31 | 1014.5 |
| 20260505180927 | 83 | 272 | 0.0 | 6.0 | 0.00 | 0.00 | 0.00 | 32 | 1014.3 |
| 20260505180423 | 83 | 221 | 0.0 | 6.0 | 0.00 | 0.00 | 0.00 | 31 | 1014.3 |
| 20260505175920 | 83 | 168 | 0.0 | 4.0 | 0.00 | 0.00 | 0.00 | 32 | 1014.6 |
| 20260505175416 | 82 | 104 | 0.0 | 4.0 | 0.00 | 0.00 | 0.00 | 31 | 1014.6 |
| 20260505174912 | 82 | 33 | 1.0 | 4.0 | 0.00 | 0.00 | 0.00 | 31 | 1014.7 |
| 20260505174410 | 82 | 288 | 3.0 | 3.0 | 0.00 | 0.00 | 0.00 | 30 | 1014.9 |
| 20260505173906 | 82 | 195 | 0.0 | 3.0 | 0.00 | 0.00 | 0.00 | 37 | 1014.6 |
| 20260505173402 | 82 | 94 | 2.0 | 4.0 | 0.00 | 0.00 | 0.00 | 34 | 1014.6 |
| 20260505172859 | 82 | 250 | 1.0 | 3.0 | 0.00 | 0.00 | 0.00 | 35 | 1014.9 |
| 20260505172357 | 82 | 77 | 1.0 | 2.0 | 0.00 | 0.00 | 0.00 | 37 | 1014.8 |
| 20260505171857 | 82 | 130 | 2.0 | 4.0 | 0.00 | 0.00 | 0.00 | 39 | 1014.9 |
| 20260505171354 | 82 | 240 | 3.0 | 4.0 | 0.00 | 0.00 | 0.00 | 39 | 1014.9 |
| 20260505170850 | 81 | 184 | 0.0 | 3.0 | 0.00 | 0.00 | 0.00 | 39 | 1015.0 |
| 20260505170348 | 81 | 145 | 2.0 | 4.0 | 0.00 | 0.00 | 0.00 | 37 | 1015.2 |
| 20260505165842 | 80 | 333 | 1.0 | 2.0 | 0.00 | 0.00 | 0.00 | 39 | 1015.2 |
| 20260505165338 | 80 | 143 | 4.0 | 4.0 | 0.00 | 0.00 | 0.00 | 38 | 1015.2 |
| 20260505164834 | 80 | 174 | 1.0 | 4.0 | 0.00 | 0.00 | 0.00 | 39 | 1015.3 |
| 20260505164331 | 80 | 76 | 2.0 | 3.0 | 0.00 | 0.00 | 0.00 | 40 | 1015.4 |
| 20260505163829 | 80 | 165 | 2.0 | 4.0 | 0.00 | 0.00 | 0.00 | 40 | 1015.2 |
| 20260505163328 | 79 | 101 | 1.0 | 4.0 | 0.00 | 0.00 | 0.00 | 42 | 1015.2 |
| 20260505162826 | 79 | 13 | 0.0 | 3.0 | 0.00 | 0.00 | 0.00 | 39 | 1015.6 |
| 20260505162322 | 79 | 349 | 0.0 | 3.0 | 0.00 | 0.00 | 0.00 | 40 | 1015.3 |
| 20260505161819 | 79 | 140 | 0.0 | 2.0 | 0.00 | 0.00 | 0.00 | 42 | 1015.5 |
| 20260505161316 | 79 | 148 | 2.0 | 4.0 | 0.00 | 0.00 | 0.00 | 43 | 1015.7 |
| 20260505160814 | 78 | 170 | 1.0 | 3.0 | 0.00 | 0.00 | 0.00 | 42 | 1015.8 |
| 20260505160311 | 78 | 154 | 2.0 | 3.0 | 0.00 | 0.00 | 0.00 | 41 | 1016.0 |
| 20260505153250 | 77 | 210 | 2.0 | 3.0 | 0.00 | 0.00 | 0.00 | 47 | 1016.3 |
| 20260505152747 | 76 | 148 | 4.0 | 4.0 | 0.00 | 0.00 | 0.00 | 46 | 1016.0 |
| 20260505152243 | 76 | 153 | 2.0 | 4.0 | 0.00 | 0.00 | 0.00 | 48 | 1016.4 |
| 20260505151738 | 75 | 204 | 0.0 | 3.0 | 0.00 | 0.00 | 0.00 | 49 | 1016.3 |
| 20260505151236 | 75 | 162 | 1.0 | 3.0 | 0.00 | 0.00 | 0.00 | 47 | 1016.4 |
| 20260505150732 | 75 | 75 | 2.0 | 3.0 | 0.00 | 0.00 | 0.00 | 48 | 1016.2 |
| 20260505150229 | 75 | 119 | 2.0 | 4.0 | 0.00 | 0.00 | 0.00 | 47 | 1016.2 |
| 20260505140154 | 70 | 142 | 4.0 | 4.0 | 0.00 | 0.00 | 0.00 | 54 | 1016.2 |
| 20260505130118 | 64 | 131 | 3.0 | 3.0 | 0.00 | 0.00 | 0.00 | 66 | 1016.7 |
| 20260505124607 | 63 | 135 | 3.0 | 3.0 | 0.00 | 0.00 | 0.00 | 68 | 1016.8 |
| 20260505124103 | 63 | 144 | 3.0 | 4.0 | 0.00 | 0.00 | 0.00 | 68 | 1016.6 |
| 20260505123600 | 62 | 101 | 2.0 | 3.0 | 0.00 | 0.00 | 0.00 | 70 | 1016.6 |
| 20260505123056 | 62 | 97 | 1.0 | 2.0 | 0.00 | 0.00 | 0.00 | 72 | 1016.5 |
| 20260505122553 | 62 | 155 | 2.0 | 3.0 | 0.00 | 0.00 | 0.00 | 71 | 1016.7 |
| 20260505122050 | 62 | 126 | 1.0 | 3.0 | 0.00 | 0.00 | 0.00 | 71 | 1016.6 |
| 20260505121547 | 61 | 146 | 2.0 | 3.0 | 0.00 | 0.00 | 0.00 | 72 | 1016.6 |
| 20260505121044 | 61 | 169 | 2.0 | 3.0 | 0.00 | 0.00 | 0.00 | 73 | 1016.7 |
| 20260505120540 | 61 | 140 | 2.0 | 3.0 | 0.00 | 0.00 | 0.00 | 73 | 1016.5 |
| 20260505120036 | 61 | 150 | 2.0 | 2.0 | 0.00 | 0.00 | 0.00 | 72 | 1016.5 |
| 20260505115530 | 61 | 105 | 2.0 | 3.0 | 0.00 | 0.00 | 0.00 | 73 | 1016.4 |
| 20260505115028 | 60 | 114 | 2.0 | 3.0 | 0.00 | 0.00 | 0.00 | 74 | 1016.5 |
| 20260505114525 | 59 | 147 | 2.0 | 3.0 | 0.00 | 0.00 | 0.00 | 76 | 1016.4 |
| 20260505114021 | 59 | 111 | 1.0 | 3.0 | 0.00 | 0.00 | 0.00 | 77 | 1016.2 |
| 20260505113518 | 58 | 130 | 2.0 | 3.0 | 0.00 | 0.00 | 0.00 | 78 | 1016.1 |
| 20260505113014 | 58 | 131 | 2.0 | 3.0 | 0.00 | 0.00 | 0.00 | 78 | 1016.0 |
| 20260505112511 | 58 | 139 | 2.0 | 3.0 | 0.00 | 0.00 | 0.00 | 79 | 1016.2 |
| 20260505112009 | 58 | 156 | 2.0 | 3.0 | 0.00 | 0.00 | 0.00 | 78 | 1016.0 |
| 20260505111502 | 58 | 145 | 2.0 | 2.0 | 0.00 | 0.00 | 0.00 | 78 | 1016.1 |
| 20260505110958 | 58 | 148 | 2.0 | 3.0 | 0.00 | 0.00 | 0.00 | 78 | 1015.9 |
| 20260505110449 | 57 | 140 | 2.0 | 3.0 | 0.00 | 0.00 | 0.00 | 78 | 1015.8 |
| 20260505101921 | 57 | 147 | 2.0 | 2.0 | 0.00 | 0.00 | 0.00 | 78 | 1015.4 |
| 20260505101415 | 57 | 129 | 2.0 | 2.0 | 0.00 | 0.00 | 0.00 | 77 | 1015.3 |
| 20260505100911 | 57 | 130 | 1.0 | 2.0 | 0.00 | 0.00 | 0.00 | 78 | 1015.4 |
| 20260505100408 | 58 | 122 | 2.0 | 2.0 | 0.00 | 0.00 | 0.00 | 78 | 1015.5 |
| 20260505095903 | 58 | 136 | 2.0 | 2.0 | 0.00 | 0.00 | 0.00 | 76 | 1015.4 |
| 20260505095401 | 58 | 122 | 2.0 | 2.0 | 0.00 | 0.00 | 0.00 | 76 | 1015.6 |
| 20260505094857 | 58 | 155 | 2.0 | 2.0 | 0.00 | 0.00 | 0.00 | 77 | 1015.4 |
| 20260505094354 | 58 | 139 | 2.0 | 2.0 | 0.00 | 0.00 | 0.00 | 76 | 1015.5 |
| 20260505093849 | 58 | 140 | 2.0 | 2.0 | 0.00 | 0.00 | 0.00 | 76 | 1015.3 |
| 20260505093347 | 59 | 144 | 2.0 | 2.0 | 0.00 | 0.00 | 0.00 | 75 | 1015.5 |
| 20260505092844 | 59 | 149 | 2.0 | 3.0 | 0.00 | 0.00 | 0.00 | 74 | 1015.5 |
| 20260505092342 | 59 | 125 | 2.0 | 2.0 | 0.00 | 0.00 | 0.00 | 74 | 1015.4 |
| 20260505091839 | 59 | 195 | 2.0 | 4.0 | 0.00 | 0.00 | 0.00 | 74 | 1015.3 |
| 20260505091337 | 59 | 149 | 2.0 | 3.0 | 0.00 | 0.00 | 0.00 | 74 | 1015.5 |
| 20260505090835 | 59 | 149 | 2.0 | 3.0 | 0.00 | 0.00 | 0.00 | 74 | 1015.3 |
| 20260505090333 | 59 | 140 | 2.0 | 3.0 | 0.00 | 0.00 | 0.00 | 74 | 1015.3 |
| 20260505085830 | 59 | 142 | 2.0 | 3.0 | 0.00 | 0.00 | 0.00 | 73 | 1015.3 |
| 20260505085328 | 59 | 151 | 2.0 | 3.0 | 0.00 | 0.00 | 0.00 | 73 | 1015.0 |
| 20260505084825 | 59 | 152 | 2.0 | 3.0 | 0.00 | 0.00 | 0.00 | 73 | 1015.2 |
| 20260505084324 | 60 | 145 | 2.0 | 3.0 | 0.00 | 0.00 | 0.00 | 73 | 1015.4 |
| 20260505083820 | 60 | 99 | 2.0 | 3.0 | 0.00 | 0.00 | 0.00 | 72 | 1015.4 |
| 20260505083318 | 60 | 130 | 1.0 | 3.0 | 0.00 | 0.00 | 0.00 | 71 | 1015.2 |
| 20260505082814 | 60 | 130 | 2.0 | 3.0 | 0.00 | 0.00 | 0.00 | 71 | 1015.3 |
| 20260505082311 | 60 | 152 | 2.0 | 2.0 | 0.00 | 0.00 | 0.00 | 71 | 1015.4 |
| 20260505081807 | 60 | 131 | 1.0 | 3.0 | 0.00 | 0.00 | 0.00 | 71 | 1015.2 |
| 20260505081304 | 60 | 127 | 3.0 | 3.0 | 0.00 | 0.00 | 0.00 | 70 | 1015.1 |
| 20260505080801 | 60 | 156 | 2.0 | 2.0 | 0.00 | 0.00 | 0.00 | 70 | 1015.0 |
| 20260505080256 | 60 | 102 | 2.0 | 3.0 | 0.00 | 0.00 | 0.00 | 70 | 1015.2 |
| 20260505075752 | 60 | 118 | 2.0 | 2.0 | 0.00 | 0.00 | 0.00 | 69 | 1015.2 |
| 20260505075249 | 59 | 151 | 2.0 | 2.0 | 0.00 | 0.00 | 0.00 | 70 | 1015.2 |
| 20260505074747 | 59 | 127 | 2.0 | 2.0 | 0.00 | 0.00 | 0.00 | 69 | 1014.9 |
| 20260505074244 | 60 | 161 | 2.0 | 3.0 | 0.00 | 0.00 | 0.00 | 68 | 1015.0 |
| 20260505073741 | 60 | 149 | 1.0 | 3.0 | 0.00 | 0.00 | 0.00 | 68 | 1015.0 |
| 20260505073239 | 60 | 154 | 2.0 | 3.0 | 0.00 | 0.00 | 0.00 | 67 | 1015.0 |
| 20260505072735 | 60 | 153 | 2.0 | 3.0 | 0.00 | 0.00 | 0.00 | 67 | 1014.9 |
| 20260505072231 | 60 | 148 | 2.0 | 2.0 | 0.00 | 0.00 | 0.00 | 66 | 1014.8 |
| 20260505071727 | 60 | 145 | 1.0 | 2.0 | 0.00 | 0.00 | 0.00 | 66 | 1014.8 |
| 20260505071224 | 60 | 128 | 1.0 | 3.0 | 0.00 | 0.00 | 0.00 | 65 | 1014.9 |
| 20260505070716 | 60 | 155 | 2.0 | 2.0 | 0.00 | 0.00 | 0.00 | 66 | 1014.8 |
| 20260505070212 | 60 | 147 | 2.0 | 2.0 | 0.00 | 0.00 | 0.00 | 65 | 1014.7 |
| 20260505065708 | 60 | 159 | 2.0 | 2.0 | 0.00 | 0.00 | 0.00 | 66 | 1014.9 |
| 20260505065205 | 61 | 141 | 2.0 | 3.0 | 0.00 | 0.00 | 0.00 | 64 | 1014.7 |
| 20260505064702 | 61 | 145 | 2.0 | 2.0 | 0.00 | 0.00 | 0.00 | 63 | 1015.1 |
| 20260505064200 | 61 | 126 | 2.0 | 2.0 | 0.00 | 0.00 | 0.00 | 62 | 1014.9 |
| 20260505063657 | 61 | 149 | 1.0 | 2.0 | 0.00 | 0.00 | 0.00 | 62 | 1014.7 |
| 20260505063153 | 61 | 133 | 2.0 | 3.0 | 0.00 | 0.00 | 0.00 | 63 | 1014.8 |
| 20260505062649 | 61 | 145 | 3.0 | 3.0 | 0.00 | 0.00 | 0.00 | 61 | 1014.7 |
| 20260505062147 | 61 | 139 | 2.0 | 2.0 | 0.00 | 0.00 | 0.00 | 61 | 1014.7 |
| 20260505061644 | 61 | 159 | 2.0 | 2.0 | 0.00 | 0.00 | 0.00 | 61 | 1014.8 |
| 20260505061143 | 62 | 112 | 1.0 | 3.0 | 0.00 | 0.00 | 0.00 | 60 | 1014.7 |
| 20260505060640 | 62 | 121 | 1.0 | 3.0 | 0.00 | 0.00 | 0.00 | 59 | 1014.7 |
| 20260505060136 | 62 | 126 | 1.0 | 3.0 | 0.00 | 0.00 | 0.00 | 58 | 1014.8 |
| 20260505055631 | 62 | 137 | 2.0 | 2.0 | 0.00 | 0.00 | 0.00 | 58 | 1014.7 |
| 20260505055128 | 62 | 162 | 2.0 | 3.0 | 0.00 | 0.00 | 0.00 | 58 | 1014.6 |
| 20260505054626 | 62 | 119 | 0.0 | 2.0 | 0.00 | 0.00 | 0.00 | 57 | 1014.8 |
| 20260505054124 | 63 | 160 | 1.0 | 3.0 | 0.00 | 0.00 | 0.00 | 57 | 1014.5 |
| 20260505053620 | 63 | 43 | 0.0 | 3.0 | 0.00 | 0.00 | 0.00 | 56 | 1014.8 |
| 20260505053116 | 63 | 156 | 2.0 | 3.0 | 0.00 | 0.00 | 0.00 | 57 | 1014.7 |
| 20260505052614 | 63 | 108 | 2.0 | 2.0 | 0.00 | 0.00 | 0.00 | 54 | 1014.7 |
| 20260505052112 | 64 | 143 | 1.0 | 2.0 | 0.00 | 0.00 | 0.00 | 54 | 1014.7 |
| 20260505051608 | 64 | 103 | 1.0 | 2.0 | 0.00 | 0.00 | 0.00 | 53 | 1014.7 |
| 20260505051107 | 64 | 111 | 2.0 | 2.0 | 0.00 | 0.00 | 0.00 | 53 | 1014.7 |
| 20260505050604 | 64 | 133 | 1.0 | 3.0 | 0.00 | 0.00 | 0.00 | 55 | 1014.5 |
| 20260505041532 | 61 | 138 | 2.0 | 2.0 | 0.00 | 0.00 | 0.00 | 63 | 1014.0 |
| 20260505041029 | 61 | 140 | 1.0 | 2.0 | 0.00 | 0.00 | 0.00 | 63 | 1014.2 |
| 20260505040526 | 61 | 150 | 2.0 | 2.0 | 0.00 | 0.00 | 0.00 | 64 | 1014.2 |
| 20260505040024 | 61 | 149 | 2.0 | 3.0 | 0.00 | 0.00 | 0.00 | 61 | 1013.9 |
| 20260505035520 | 61 | 138 | 2.0 | 2.0 | 0.00 | 0.00 | 0.00 | 60 | 1014.0 |
| 20260505035017 | 61 | 154 | 2.0 | 2.0 | 0.00 | 0.00 | 0.00 | 59 | 1014.1 |
| 20260505034513 | 61 | 164 | 2.0 | 3.0 | 0.00 | 0.00 | 0.00 | 60 | 1013.9 |
| 20260505034010 | 61 | 171 | 2.0 | 3.0 | 0.00 | 0.00 | 0.00 | 62 | 1014.1 |
| 20260505033507 | 61 | 138 | 2.0 | 2.0 | 0.00 | 0.00 | 0.00 | 65 | 1014.1 |
| 20260505033005 | 62 | 166 | 2.0 | 2.0 | 0.00 | 0.00 | 0.00 | 69 | 1014.1 |
| 20260505032502 | 62 | 159 | 2.0 | 3.0 | 0.00 | 0.00 | 0.00 | 66 | 1014.0 |
| 20260505031959 | 62 | 149 | 2.0 | 2.0 | 0.00 | 0.00 | 0.00 | 61 | 1014.2 |
| 20260505031455 | 62 | 148 | 2.0 | 3.0 | 0.00 | 0.00 | 0.00 | 57 | 1014.3 |
| 20260505030952 | 62 | 154 | 2.0 | 2.0 | 0.00 | 0.00 | 0.00 | 58 | 1013.9 |
| 20260505030449 | 62 | 157 | 2.0 | 3.0 | 0.00 | 0.00 | 0.00 | 59 | 1014.2 |
| 20260505025944 | 62 | 143 | 2.0 | 2.0 | 0.00 | 0.00 | 0.00 | 58 | 1014.2 |
| 20260505025441 | 63 | 168 | 2.0 | 2.0 | 0.00 | 0.00 | 0.00 | 60 | 1014.3 |
| 20260505024940 | 63 | 155 | 1.0 | 2.0 | 0.00 | 0.00 | 0.00 | 61 | 1014.2 |
| 20260505024437 | 63 | 146 | 2.0 | 2.0 | 0.00 | 0.00 | 0.00 | 61 | 1014.3 |
| 20260505023934 | 63 | 141 | 2.0 | 2.0 | 0.00 | 0.00 | 0.00 | 59 | 1014.1 |
| 20260505023431 | 63 | 127 | 2.0 | 3.0 | 0.00 | 0.00 | 0.00 | 56 | 1014.0 |
| 20260505022928 | 63 | 138 | 2.0 | 2.0 | 0.00 | 0.00 | 0.00 | 58 | 1014.1 |
| 20260505022426 | 63 | 170 | 2.0 | 2.0 | 0.00 | 0.00 | 0.00 | 57 | 1014.1 |
| 20260505021923 | 64 | 158 | 2.0 | 3.0 | 0.00 | 0.00 | 0.00 | 58 | 1014.2 |
| 20260505021419 | 64 | 160 | 3.0 | 3.0 | 0.00 | 0.00 | 0.00 | 56 | 1013.9 |
| 20260505020915 | 64 | 149 | 2.0 | 3.0 | 0.00 | 0.00 | 0.00 | 57 | 1014.1 |
| 20260505020410 | 64 | 147 | 2.0 | 2.0 | 0.00 | 0.00 | 0.00 | 56 | 1014.0 |
| 20260505015908 | 64 | 161 | 2.0 | 2.0 | 0.00 | 0.00 | 0.00 | 52 | 1014.0 |
| 20260505015405 | 65 | 158 | 2.0 | 3.0 | 0.00 | 0.00 | 0.00 | 52 | 1014.1 |
| 20260505014902 | 65 | 157 | 2.0 | 3.0 | 0.00 | 0.00 | 0.00 | 53 | 1014.0 |
| 20260505014359 | 65 | 161 | 2.0 | 3.0 | 0.00 | 0.00 | 0.00 | 55 | 1013.9 |
| 20260505013855 | 65 | 163 | 2.0 | 3.0 | 0.00 | 0.00 | 0.00 | 55 | 1013.8 |
| 20260505013352 | 65 | 151 | 2.0 | 3.0 | 0.00 | 0.00 | 0.00 | 57 | 1013.7 |
| 20260505012851 | 66 | 160 | 2.0 | 3.0 | 0.00 | 0.00 | 0.00 | 57 | 1013.7 |
| 20260505012349 | 66 | 153 | 1.0 | 2.0 | 0.00 | 0.00 | 0.00 | 54 | 1013.5 |
| 20260505011844 | 66 | 157 | 2.0 | 2.0 | 0.00 | 0.00 | 0.00 | 54 | 1013.7 |
| 20260505011341 | 66 | 144 | 0.0 | 2.0 | 0.00 | 0.00 | 0.00 | 56 | 1013.3 |
| 20260505010837 | 66 | 150 | 2.0 | 2.0 | 0.00 | 0.00 | 0.00 | 52 | 1013.6 |
| 20260505010333 | 66 | 168 | 1.0 | 2.0 | 0.00 | 0.00 | 0.00 | 54 | 1013.4 |
| 20260505005830 | 66 | 158 | 2.0 | 2.0 | 0.00 | 0.00 | 0.00 | 52 | 1013.2 |
| 20260505005327 | 66 | 160 | 2.0 | 3.0 | 0.00 | 0.00 | 0.00 | 51 | 1013.3 |
| 20260505004825 | 67 | 158 | 2.0 | 3.0 | 0.00 | 0.00 | 0.00 | 58 | 1013.2 |
| 20260505004320 | 68 | 161 | 2.0 | 3.0 | 0.00 | 0.00 | 0.00 | 57 | 1013.2 |
| 20260505003818 | 68 | 147 | 1.0 | 2.0 | 0.00 | 0.00 | 0.00 | 54 | 1013.0 |
| 20260505003315 | 68 | 165 | 2.0 | 2.0 | 0.00 | 0.00 | 0.00 | 47 | 1013.4 |
| 20260505002811 | 68 | 103 | 0.0 | 2.0 | 0.00 | 0.00 | 0.00 | 49 | 1013.2 |
| 20260505002308 | 68 | 163 | 1.0 | 2.0 | 0.00 | 0.00 | 0.00 | 50 | 1013.2 |
| 20260505001807 | 69 | 149 | 2.0 | 2.0 | 0.00 | 0.00 | 0.00 | 52 | 1013.3 |
| 20260505001303 | 70 | 119 | 1.0 | 2.0 | 0.00 | 0.00 | 0.00 | 52 | 1013.2 |
| 20260505000800 | 70 | 144 | 2.0 | 3.0 | 0.00 | 0.00 | 0.00 | 42 | 1012.9 |
| 20260505000258 | 70 | 81 | 0.0 | 2.0 | 0.00 | 0.00 | 0.00 | 48 | 1013.3 |
| 20260504235754 | 70 | 159 | 2.0 | 2.0 | 0.00 | 0.00 | 0.00 | 43 | 1013.7 |
| 20260504235245 | 71 | 169 | 2.0 | 2.0 | 0.00 | 0.00 | 0.00 | 42 | 1013.6 |
| 20260504234742 | 71 | 169 | 2.0 | 2.0 | 0.00 | 0.00 | 0.00 | 43 | 1013.6 |
| 20260504234240 | 71 | 170 | 2.0 | 3.0 | 0.00 | 0.00 | 0.00 | 41 | 1013.4 |
| 20260504233736 | 72 | 158 | 2.0 | 2.0 | 0.00 | 0.00 | 0.00 | 39 | 1013.2 |
| 20260504233232 | 72 | 171 | 2.0 | 2.0 | 0.00 | 0.00 | 0.00 | 38 | 1013.2 |
| 20260504232729 | 72 | 166 | 2.0 | 3.0 | 0.00 | 0.00 | 0.00 | 38 | 1013.4 |
| 20260504232226 | 72 | 160 | 2.0 | 2.0 | 0.00 | 0.00 | 0.00 | 38 | 1013.1 |
| 20260504231722 | 73 | 176 | 1.0 | 3.0 | 0.00 | 0.00 | 0.00 | 38 | 1013.1 |
| 20260504231218 | 73 | 169 | 3.0 | 3.0 | 0.00 | 0.00 | 0.00 | 37 | 1013.0 |
| 20260504230714 | 73 | 151 | 2.0 | 2.0 | 0.00 | 0.00 | 0.00 | 37 | 1013.1 |
| 20260504230213 | 74 | 109 | 2.0 | 3.0 | 0.00 | 0.00 | 0.00 | 36 | 1012.9 |